[[{"header":{"parameterUnit":"m.s-1","parameterCategory":1,"la1":30.2991,"la2":30.254,"lo1":-89.0895,"lo2":-89.0444,"dy":0.0017,"dx":0.0017,"nx":28,"ny":28,"refTime":"2025-04-22T03:00:00:Z","depth":0,"parameterNumber":2,"parameterNumberName":"U-component_of_WINDS"},"data":[0,0,0,0,0,0,0,0,0,0,0,0,0,0,0,0,0,0,0,0,0,0,0,0,0,0,0,0,0,0,0,0,0,0,0,0,0,0,0,0,0,0,0,0,0,0,0,0,0,0,0,0,0,0,0,0,0,0,-2.3882,-2.3883,0,-2.3967,-2.3967,-2.3968,-2.3967,-2.3966,-2.3965,-2.3963,-2.4051,-2.4054,-2.4057,0,0,0,0,0,0,0,0,0,0,0,0,0,-2.3721,-2.3724,-2.3882,-2.3883,-2.3884,-2.3966,-2.3968,-2.3969,-2.3967,-2.3966,-2.3964,-2.3963,-2.405,-2.4054,-2.4058,0,0,0,0,0,0,0,0,0,0,0,0,0,-2.3797,-2.3725,-2.3882,-2.3893,-2.3895,-2.3966,-2.3968,-2.3969,-2.3967,-2.3966,-2.3964,-2.3962,-2.4048,-2.4053,-2.4058,-2.4124,0,0,-2.4074,-2.4076,0,0,0,0,0,0,0,0,-2.3793,-2.3803,-2.3891,-2.3893,-2.3895,-2.3954,-2.3943,-2.4021,-2.3968,-2.394,-2.3963,-2.3961,-2.402,-2.4027,-2.4047,-2.4128,-2.4132,-2.4074,-2.4077,-2.408,-2.4081,0,0,0,0,0,0,0,-2.3787,-2.3799,-2.3916,-2.3892,-2.3895,-2.3895,-2.3904,-2.3958,-2.3989,-2.3942,-2.3942,-2.3952,-2.4021,-2.4042,-2.4049,-2.4133,-2.4074,-2.4079,-2.4082,-2.4084,-2.4272,-2.4274,0,0,0,0,0,0,-2.378,-2.3795,-2.3913,-2.3918,-2.3838,-2.3899,-2.3909,-2.3937,-2.3988,-2.3994,-2.3954,-2.3952,-2.4034,-2.4043,-2.4052,-2.4132,-2.408,-2.4084,-2.4087,-2.427,-2.4272,-2.4274,0,0,0,0,0,0,-2.3776,-2.379,-2.391,-2.3857,-2.3872,-2.3904,-2.3935,-2.394,-2.3961,-2.3997,-2.4002,-2.3969,-2.4033,-2.4045,-2.4106,-2.4135,-2.4087,-2.4091,-2.4268,-2.4271,-2.4273,-2.4292,0,0,0,0,0,0,-2.3772,-2.3789,-2.3814,-2.3857,-2.3875,-2.3962,-2.3937,-2.3943,-2.3969,-2.3968,-2.4013,-2.4019,-2.4033,-2.4098,-2.4111,-2.4141,-2.4095,-2.4265,-2.4269,-2.4272,-2.4289,-2.4295,-2.4301,0,0,0,0,0,-2.3766,-2.3816,-2.3815,-2.3829,-2.3906,-2.3963,-2.3973,-2.3988,-2.3972,-2.3997,-2.402,-2.4017,-2.413,-2.4105,-2.4119,-2.4151,-2.4263,-2.4268,-2.4272,-2.4286,-2.4294,-2.43,0,0,0,0,0,0,-2.3775,-2.3822,-2.3821,-2.3887,-2.3921,-2.3963,-2.3995,-2.3996,-2.4036,-2.4032,-2.405,-2.406,-2.4121,-2.4142,-2.4113,-2.4217,-2.4195,-2.4202,-2.4201,-2.4208,-2.4214,-2.4207,-2.4099,0,0,0,0,0,-2.3785,-2.3827,-2.3866,-2.392,-2.3937,-2.3963,-2.3989,-2.3997,-2.4033,-2.4048,-2.4075,-2.4111,-2.4154,-2.4183,-2.4225,-2.4292,-2.4302,-2.4321,-2.4327,-2.4332,-2.4338,-2.4375,-2.4384,-2.4289,-2.4289,-2.4289,0,0,-2.3806,-2.3836,-2.3862,-2.3923,-2.395,-2.3993,-2.3975,-2.4022,-2.4054,-2.4055,-2.4114,-2.4136,-2.4177,-2.4241,-2.4271,-2.4261,-2.4367,-2.4337,-2.4341,-2.4344,-2.4381,-2.439,-2.4398,-2.4292,-2.4291,-2.4291,0,0,-2.3865,-2.3893,-2.3941,-2.3968,-2.401,-2.4027,-2.4039,-2.4081,-2.4095,-2.4155,-2.4156,-2.4195,-2.427,-2.4299,-2.4323,-2.4394,-2.4393,-2.4407,-2.4437,-2.4474,-2.4481,-2.4488,-2.4513,-2.4522,-2.4413,-2.4413,-2.4414,0,-2.3885,-2.395,-2.3965,-2.4012,-2.4039,-2.4041,-2.409,-2.4117,-2.417,-2.4189,-2.4177,-2.427,-2.4298,-2.4369,-2.4386,-2.4406,-2.442,-2.4402,-2.4479,-2.4486,-2.4492,-2.4516,-2.4526,-2.4415,-2.4415,-2.4415,-2.4414,0,-2.3973,-2.4018,-2.4052,-2.4103,-2.4134,-2.4181,-2.4204,-2.4233,-2.4239,-2.4258,-2.4319,-2.4352,-2.4401,-2.4419,-2.4425,-2.4491,-2.4483,-2.4475,-2.4453,-2.4502,-2.4525,-2.4535,-2.4417,-2.4416,-2.4416,-2.4416,0,0,-2.404,-2.4099,-2.4111,-2.4134,-2.4181,-2.4216,-2.4264,-2.4311,-2.4336,-2.4373,-2.4414,-2.4477,-2.447,-2.4497,-2.4508,-2.4539,-2.4593,-2.4527,-2.4528,-2.4538,-2.4667,-2.4673,-2.4683,-2.4593,-2.4595,-2.4596,-2.4664,0,-2.4104,-2.4189,-2.4204,-2.4278,-2.4319,-2.4323,-2.4364,-2.4398,-2.4417,-2.4455,-2.4476,-2.4521,-2.4508,-2.4524,-2.4556,-2.458,-2.4619,-2.4575,-2.4631,-2.4633,-2.462,-2.4695,-2.4701,-2.4763,-2.4673,-2.4674,-2.4675,0,-2.419,-2.4228,-2.4306,-2.4347,-2.4365,-2.4402,-2.4447,-2.4484,-2.4522,-2.4533,-2.4565,-2.4571,-2.4621,-2.4598,-2.4667,-2.4637,-2.4661,-2.4676,-2.4679,-2.4684,-2.4656,-2.4702,-2.4784,-2.4793,-2.469,-2.4689,-2.4688,0,-2.423,-2.4302,-2.4358,-2.4378,-2.4427,-2.4453,-2.4474,-2.4511,-2.4538,-2.4578,-2.4595,-2.464,-2.4665,-2.47,-2.4718,-2.4699,-2.4787,-2.4764,-2.4798,-2.4797,-2.4815,-2.4814,-2.4901,-2.4832,-2.4832,-2.4832,-2.4831,0,-2.43,-2.4347,-2.4376,-2.4411,-2.4464,-2.4481,-2.4534,-2.4555,-2.4588,-2.4626,-2.4632,-2.4669,-2.4691,-2.4731,-2.4746,-2.4802,-2.4813,-2.4824,-2.4827,-2.4823,-2.4821,-2.4838,-2.4834,-2.4834,-2.4833,-2.4833,-2.4833,0,-2.4353,-2.4375,-2.4436,-2.4478,-2.4489,-2.4527,-2.4562,-2.4596,-2.4615,-2.4664,-2.4676,-2.4707,-2.4754,-2.4776,-2.4835,-2.4845,-2.4907,-2.4908,-2.4894,-2.4895,-2.4927,-2.4924,-2.5028,-2.5043,-2.4964,-2.4965,-2.4965,0,-2.4396,-2.4432,-2.4478,-2.4504,-2.4526,-2.4568,-2.4596,-2.4615,-2.4644,-2.469,-2.4718,-2.4765,-2.4804,-2.4879,-2.4907,-2.4952,-2.4953,-2.4987,-2.496,-2.4955,-2.4953,-2.4951,-2.4954,-2.4991,-2.4992,-2.4993,-2.4993,0,-2.4469,-2.4478,-2.4517,-2.4561,-2.4594,-2.463,-2.4664,-2.4686,-2.471,-2.4742,-2.479,-2.482,-2.488,-2.4927,-2.4974,-2.4997,-2.4999,-2.5002,-2.5012,-2.5007,-2.4998,-2.5003,-2.4907,-2.4999,-2.4998,-2.4998,-2.4998,-2.4997,-2.4518,-2.4551,-2.4587,-2.4631,-2.4659,-2.4692,-2.4725,-2.4748,-2.4789,-2.4838,-2.4847,-2.4898,-2.4936,-2.4999,-2.5023,-2.5064,-2.5056,-2.5071,-2.5074,-2.5078,-2.5079,-2.4992,-2.5073,-2.5073,-2.5073,-2.5072,-2.5072,0,-2.4591,-2.4615,-2.4655,-2.4703,-2.4738,-2.4737,-2.4776,-2.4805,-2.4849,-2.4884,-2.4922,-2.4977,-2.5023,-2.5054,-2.51,-2.5127,-2.5129,-2.5138,-2.5136,-2.5142,-2.5084,-2.507,-2.5136,-2.5136,-2.5136,-2.5136,-2.5136,-2.5136,-2.4633,-2.4688,-2.4701,-2.477,-2.4793,-2.4843,-2.4865,-2.4895,-2.4923,-2.4984,-2.5021,-2.5041,-2.5075,-2.5124,-2.5166,-2.5174,-2.519,-2.52,-2.5207,-2.5152,-2.5146,-2.5139,-2.5127,-2.5203,-2.5203,-2.5262,-2.5263,-2.5263]},{"header":{"parameterUnit":"m.s-1","parameterCategory":1,"la1":30.2991,"la2":30.254,"lo1":-89.0895,"lo2":-89.0444,"dy":0.0017,"dx":0.0017,"nx":28,"ny":28,"refTime":"2025-04-22T03:00:00:Z","depth":0,"parameterNumber":3,"parameterNumberName":"V-component_of_WINDS"},"data":[0,0,0,0,0,0,0,0,0,0,0,0,0,0,0,0,0,0,0,0,0,0,0,0,0,0,0,0,0,0,0,0,0,0,0,0,0,0,0,0,0,0,0,0,0,0,0,0,0,0,0,0,0,0,0,0,0,0,3.2456,3.2457,0,3.2573,3.2574,3.2575,3.2568,3.2566,3.2564,3.2563,3.2681,3.2686,3.2691,0,0,0,0,0,0,0,0,0,0,0,0,0,3.2226,3.223,3.2455,3.2457,3.2458,3.2572,3.2574,3.2576,3.2568,3.2566,3.2564,3.2562,3.268,3.2685,3.2691,0,0,0,0,0,0,0,0,0,0,0,0,0,3.2332,3.2231,3.2455,3.2468,3.2471,3.2572,3.2574,3.2576,3.2569,3.2566,3.2563,3.2561,3.2678,3.2685,3.2692,3.2787,0,0,3.2714,3.2717,0,0,0,0,0,0,0,0,3.2326,3.2341,3.2465,3.2468,3.2471,3.2553,3.2536,3.2647,3.2569,3.2531,3.2563,3.256,3.2641,3.2651,3.2678,3.2793,3.2798,3.2714,3.2719,3.2722,3.2724,0,0,0,0,0,0,0,3.2319,3.2336,3.2502,3.2467,3.247,3.2469,3.2481,3.2557,3.2599,3.2535,3.2534,3.2548,3.2642,3.2671,3.2681,3.28,3.2714,3.272,3.2725,3.2728,3.3,3.3003,0,0,0,0,0,0,3.2309,3.233,3.2498,3.2505,3.2391,3.2475,3.2489,3.2529,3.2598,3.2606,3.255,3.2548,3.2661,3.2673,3.2685,3.2803,3.2722,3.2728,3.2732,3.2997,3.3001,3.3004,0,0,0,0,0,0,3.2304,3.2324,3.2493,3.2418,3.2439,3.2482,3.2527,3.2533,3.2562,3.261,3.2617,3.2573,3.2659,3.2675,3.2762,3.2807,3.2732,3.2738,3.2994,3.2998,3.3002,3.3037,0,0,0,0,0,0,3.2297,3.2322,3.2359,3.2418,3.2443,3.2569,3.253,3.2537,3.2575,3.2572,3.2633,3.2641,3.2658,3.2752,3.277,3.2815,3.2744,3.299,3.2996,3.3001,3.3032,3.3042,3.3051,0,0,0,0,0,3.2289,3.2363,3.236,3.2381,3.249,3.2571,3.2585,3.2604,3.2578,3.2616,3.2647,3.2639,3.2799,3.2761,3.2781,3.2829,3.2987,3.2994,3.3001,3.3028,3.304,3.3051,0,0,0,0,0,0,3.2306,3.2371,3.2369,3.2464,3.2512,3.257,3.2617,3.2616,3.2672,3.2667,3.2687,3.2701,3.2789,3.2818,3.2774,3.2926,3.289,3.2901,3.2904,3.2916,3.2925,3.2917,3.275,0,0,0,0,0,3.2321,3.2382,3.2435,3.2515,3.2539,3.2574,3.261,3.2621,3.2671,3.2691,3.2728,3.2778,3.2839,3.2879,3.2938,3.3037,3.305,3.308,3.3089,3.3096,3.3106,3.3162,3.3176,3.3026,3.3026,3.3026,0,0,3.2353,3.2396,3.2433,3.2519,3.2558,3.2621,3.2591,3.2659,3.2706,3.2701,3.2787,3.2816,3.2872,3.2966,3.3009,3.2992,3.315,3.3105,3.311,3.3116,3.317,3.3184,3.3197,3.303,3.303,3.3029,0,0,3.2442,3.2481,3.2552,3.2591,3.265,3.2673,3.2691,3.2749,3.2768,3.2854,3.2853,3.2909,3.3014,3.3055,3.3089,3.3197,3.3193,3.3215,3.3264,3.3318,3.333,3.3341,3.338,3.3394,3.3225,3.3225,3.3225,0,3.2474,3.2569,3.2588,3.2657,3.2696,3.2695,3.2768,3.2805,3.288,3.2907,3.2888,3.3021,3.3058,3.3163,3.3189,3.3217,3.3238,3.3209,3.3327,3.3338,3.3348,3.3386,3.3401,3.3227,3.3227,3.3227,3.3226,0,3.2605,3.2672,3.2722,3.2796,3.284,3.291,3.294,3.2983,3.299,3.3015,3.3104,3.3149,3.3218,3.3244,3.3251,3.335,3.3338,3.3322,3.3287,3.3364,3.34,3.3415,3.3231,3.323,3.3229,3.3228,0,0,3.2708,3.2793,3.2811,3.2846,3.2912,3.2963,3.3034,3.3103,3.3139,3.3191,3.3252,3.3342,3.3329,3.3368,3.3379,3.3427,3.3511,3.3406,3.3408,3.3425,3.3625,3.3637,3.3653,3.3509,3.3511,3.3514,3.3621,0,3.2806,3.2932,3.2952,3.3062,3.3124,3.3126,3.3188,3.3235,3.3262,3.3318,3.3347,3.3411,3.3388,3.3412,3.3459,3.3491,3.3552,3.3483,3.3566,3.3568,3.3552,3.3672,3.3684,3.3783,3.3635,3.3637,3.3639,0,3.2936,3.2993,3.311,3.3169,3.3196,3.3251,3.3317,3.3371,3.3425,3.3441,3.3486,3.3492,3.3566,3.3527,3.3631,3.3584,3.3619,3.364,3.3644,3.3653,3.3609,3.3685,3.3814,3.3829,3.3661,3.3659,3.3658,0,3.3001,3.3107,3.3191,3.322,3.3291,3.333,3.3362,3.3413,3.3454,3.3511,3.3538,3.3602,3.3638,3.3688,3.3712,3.3681,3.3814,3.3777,3.383,3.383,3.3858,3.3856,3.3996,3.3879,3.3879,3.3879,3.3879,0,3.3108,3.318,3.3221,3.3273,3.3354,3.3377,3.3457,3.3487,3.3534,3.3592,3.3597,3.3651,3.368,3.3739,3.3758,3.3841,3.3857,3.3872,3.3877,3.3872,3.3871,3.3896,3.389,3.3883,3.3882,3.3881,3.3881,0,3.3194,3.3225,3.3317,3.3377,3.3394,3.3451,3.3503,3.3554,3.358,3.3654,3.3673,3.3714,3.3784,3.3813,3.3898,3.3911,3.4008,3.4006,3.3989,3.3991,3.4043,3.4038,3.4205,3.4228,3.4095,3.4096,3.4097,0,3.3261,3.3316,3.3383,3.3423,3.3456,3.3519,3.3561,3.3586,3.3629,3.3696,3.3739,3.381,3.3867,3.3979,3.4017,3.4083,3.4083,3.4137,3.4093,3.4088,3.4086,3.4083,3.4089,3.4145,3.4147,3.4148,3.4149,0,3.3376,3.3389,3.3449,3.3516,3.3565,3.3619,3.367,3.3703,3.3735,3.3784,3.3856,3.3901,3.3989,3.4059,3.4128,3.416,3.4161,3.4162,3.4179,3.4175,3.4164,3.4172,3.4013,3.4159,3.4158,3.4157,3.4156,3.4156,3.3456,3.3506,3.3561,3.3628,3.367,3.3719,3.377,3.3804,3.3864,3.3939,3.3949,3.4027,3.4081,3.4174,3.4209,3.427,3.4257,3.4279,3.4285,3.4291,3.4295,3.4153,3.4283,3.4282,3.4282,3.4282,3.4282,0,3.3572,3.3608,3.367,3.3743,3.3797,3.3793,3.385,3.3895,3.3964,3.4015,3.4072,3.4155,3.4224,3.4267,3.4337,3.4377,3.4379,3.4395,3.4392,3.44,3.4303,3.4282,3.4392,3.4392,3.4392,3.4392,3.4392,3.4392,3.364,3.3725,3.3745,3.3851,3.3887,3.3963,3.3996,3.4042,3.4083,3.4176,3.4234,3.4262,3.431,3.4383,3.4446,3.4458,3.4483,3.45,3.451,3.4418,3.4407,3.4396,3.4377,3.4505,3.4505,3.4603,3.4604,3.4605]}]]